sat.trackr.live / text

‹ back to catalog

DONGPO 03

NORAD 53450 · 2022-098G

PAYLOAD ACTIVE UNKNOWN

§ Identity

Operator
Country
PRC
Launch date
2022-08-10
Launch site
TAISC
Launch vehicle
Mass (kg)
RCS (m²)

External: N2YO · Heavens-Above · Gunter

§ Orbital elements

Epoch: 2026-05-25T05:24:48.427200Z

Period
90.02 min
Inclination
97.5525°
Eccentricity
0.0004992
Mean motion
15.99652208 rev/d
Perigee alt
272.1 km
Apogee alt
278.7 km
Semi-major
6,653.5 km
B*
9.0222e-4
RAAN
280.9792°
Arg perigee
248.8986°
Mean anomaly
111.1758°
Rev number
21,152

§ Raw data

DONGPO 031 53450U 22098G   26145.22556050  .00447868  87990-4  90222-3 0  99932 53450  97.5525 280.9792 0004992 248.8986 111.1758 15.99652208211520

JSON: /api/v1/satellites/53450 · /tle

For live sub-satellite position, see the globe view (requires WebGL).

§ Visibility from observer

Set your observer location to see the next 7 days of passes ≥ 10°. The values pass through the URL so the page stays shareable.

No JS? Fill the form by hand. The geolocation button needs JavaScript.